Location: El Águila
(10.4167°N, 66.7167°W)
Time: 04:25:48
(UTC+00:00)

Cosmos 1763 Rocket - Pass Details

Date: 02 October 2022
Orbit: 732 x 780 km, 74.0° (Epoch: 26 November)

Event Time Altitude Azimuth Distance (km) Brightness Sun altitude
Rises 23:15:10 0° 342° (NNW) 3,161 6.9 -15.2°
Reaches altitude 10° 23:17:31 10° 339° (NNW) 2,245 6.2 -15.8°
Maximum altitude 23:22:33 65° 258° (WSW) 817 3.9 -17.0°
Drops below altitude 10° 23:27:39 10° 176° (S) 2,276 5.9 -18.3°
Sets 23:30:03 0° 174° (S) 3,209 6.7 -18.9°
